Location: Sternwarte ZA, Rosenfeld-Brittheim
(48.2889°N, 8.6789°E)
Time: 21:50:12
(UTC+01:00)

ISS - Pass Details

Date: 24 February 2021
Orbit: 417 x 422 km, 51.6° (Epoch: 02 March)

Event Time Altitude Azimuth Distance (km) Brightness Sun altitude
Exits shadow 05:35:33 30° 203° (SSW) 774 -2.7 -17.4°
Maximum altitude 05:36:47 46° 149° (SSE) 569 -3.0 -17.2°
Drops below altitude 10° 05:40:01 10° 74° (ENE) 1,499 0.3 -16.7°
Sets 05:42:10 0° 69° (ENE) 2,366 1.5 -16.3°
